User: anonymous   Login
Location: Newark
(34.9471°N, 136.1778°E)
Time: 12:27:16
(UTC+00:00)
Language:

XW-2F - Orbit

View from above orbital plane
View from above orbital plane
View from above satellite
View from above satellite

Ground track
Ground track

The orbit data is extracted from the following two-line orbital elements,

1 40910U 15049M   20049.11200472  .00000687  00000-0  37360-4 0  9999
2 40910  97.4677  54.3386 0016069  61.7151  11.6707 15.17708158244081
Epoch (UTC): 18 February 2020 02:41:17
Eccentricity: 0.0016069
inclination: 97.4677°
perigee height: 502 km
apogee height: 524 km
right ascension of ascending node: 54.3386°
argument of perigee: 61.7151°
revolutions per day: 15.17708158
mean anomaly at epoch: 11.6707°
orbit number at epoch: 24408

The dashed part of the orbit path shows where the satellite is in the earth's shadow,  

DLR